Location: Bailleul
(50.3375°N, 2.8513°E)
Time: 03:29:17
(UTC+00:00)

Cosmos 1980 - Pass Details

Date: 28 October 2021
Orbit: 839 x 847 km, 71.0° (Epoch: 01 December)

Event Time Altitude Azimuth Distance (km) Brightness Sun altitude
Exits shadow 04:08:36 - 336° (NNW) 2,793 6.2 -23.4°
Reaches altitude 10° 04:09:30 10° 339° (NNW) 2,472 6.0 -23.3°
Maximum altitude 04:14:56 45° 52° (NE) 1,142 4.7 -22.4°
Drops below altitude 10° 04:20:20 10° 124° (SE) 2,464 6.8 -21.6°
Sets 04:22:53 0° 131° (SE) 3,397 7.5 -21.2°
